FW7011 Weather Reports


Display with metric or nautical units.
time (UTC)temp
F
wind
direction
speed
MPH
gust
MPH
rain 1hr
in
rain 24hr
in
rain mn
in
humidity
%
barometer
mb
20260510173637 78 241 9.0 11.0 0.00 0.00 0.00 36 1017.1
20260510173134 80 234 8.0 13.0 0.00 0.00 0.00 35 1017.2
20260510172629 78 94 3.0 4.0 0.00 0.00 0.00 38 1017.1
20260510172126 78 233 6.0 11.0 0.00 0.00 0.00 35 1017.2
20260510171622 77 161 0.0 8.0 0.00 0.00 0.00 38 1017.4
20260510171120 78 313 6.0 9.0 0.00 0.00 0.00 37 1017.3
20260510170616 78 324 6.0 7.0 0.00 0.00 0.00 35 1017.3
20260510170113 78 137 1.0 3.0 0.00 0.00 0.00 34 1017.4
20260510165609 78 234 4.0 8.0 0.00 0.00 0.00 35 1017.2
20260510165104 77 47 5.0 9.0 0.00 0.00 0.00 36 1017.4
20260510164602 78 332 9.0 9.0 0.00 0.00 0.00 34 1017.3
20260510164059 77 233 6.0 9.0 0.00 0.00 0.00 35 1017.4
20260510163554 77 11 3.0 5.0 0.00 0.00 0.00 32 1017.3
20260510163051 77 275 7.0 13.0 0.00 0.00 0.00 31 1017.7
20260510162545 77 248 0.0 7.0 0.00 0.00 0.00 34 1017.7
20260510162042 77 241 6.0 7.0 0.00 0.00 0.00 36 1017.5
20260510161538 77 255 7.0 9.0 0.00 0.00 0.00 36 1017.6
20260510161035 76 34 4.0 7.0 0.00 0.00 0.00 37 1017.5
20260510160532 76 314 9.0 11.0 0.00 0.00 0.00 39 1017.5
20260510160031 76 37 0.0 5.0 0.00 0.00 0.00 38 1017.6
20260510155528 76 66 4.0 7.0 0.00 0.00 0.00 38 1017.7
20260510155025 76 262 2.0 4.0 0.00 0.00 0.00 37 1017.6
20260510154520 76 342 5.0 7.0 0.00 0.00 0.00 37 1017.8
20260510154015 76 247 3.0 8.0 0.00 0.00 0.00 42 1017.7
20260510153510 76 248 8.0 9.0 0.00 0.00 0.00 40 1017.6
20260510153008 76 297 5.0 12.0 0.00 0.00 0.00 39 1017.6
20260510152505 75 307 2.0 5.0 0.00 0.00 0.00 42 1017.9
20260510152001 75 290 7.0 11.0 0.00 0.00 0.00 39 1017.8
20260510151458 75 237 9.0 11.0 0.00 0.00 0.00 40 1017.9
20260510150954 75 357 3.0 5.0 0.00 0.00 0.00 43 1018.2
20260510150450 74 280 3.0 7.0 0.00 0.00 0.00 41 1018.0
20260510145946 74 269 5.0 11.0 0.00 0.00 0.00 46 1017.9
20260510145442 74 269 2.0 10.0 0.00 0.00 0.00 46 1018.0
20260510144939 73 287 3.0 9.0 0.00 0.00 0.00 49 1017.9
20260510144436 73 14 5.0 8.0 0.00 0.00 0.00 47 1017.8
20260510143931 74 209 2.0 3.0 0.00 0.00 0.00 53 1017.6
20260510143427 72 51 2.0 5.0 0.00 0.00 0.00 55 1018.0
20260510142925 73 285 3.0 4.0 0.00 0.00 0.00 58 1017.9
20260510142421 72 150 2.0 2.0 0.00 0.00 0.00 57 1018.1
20260510141917 70 223 2.0 5.0 0.00 0.00 0.00 58 1018.0
20260510141414 72 211 3.0 3.0 0.00 0.00 0.00 58 1017.9
20260510140906 72 226 0.0 3.0 0.00 0.00 0.00 57 1018.0
20260510140402 70 305 0.0 3.0 0.00 0.00 0.00 59 1018.0
20260510135901 70 230 2.0 3.0 0.00 0.00 0.00 62 1018.0
20260510135358 69 167 2.0 3.0 0.00 0.00 0.00 61 1018.0
20260510134855 68 231 2.0 5.0 0.00 0.00 0.00 65 1017.9
20260510134351 68 220 1.0 4.0 0.00 0.00 0.00 66 1017.9
20260510133848 67 244 2.0 3.0 0.00 0.00 0.00 69 1018.1
20260510133344 66 227 2.0 4.0 0.00 0.00 0.00 70 1018.0
20260510132839 66 198 2.0 3.0 0.00 0.00 0.00 73 1017.9
20260510132338 66 238 2.0 3.0 0.00 0.00 0.00 74 1018.0
20260510131834 65 215 0.0 4.0 0.00 0.00 0.00 77 1018.0
20260510131332 66 199 0.0 3.0 0.00 0.00 0.00 76 1017.9
20260510130828 65 247 1.0 3.0 0.00 0.00 0.00 75 1017.7
20260510130325 67 13 0.0 3.0 0.00 0.00 0.00 65 1018.1
20260510125822 67 244 0.0 3.0 0.00 0.00 0.00 66 1017.8
20260510125318 66 125 1.0 2.0 0.00 0.00 0.00 75 1017.9
20260510124815 63 215 0.0 2.0 0.00 0.00 0.00 79 1018.0
20260510124312 63 212 1.0 2.0 0.00 0.00 0.00 77 1017.7
20260510123807 63 314 0.0 2.0 0.00 0.00 0.00 79 1017.7
20260510123303 60 147 0.0 2.0 0.00 0.00 0.00 85 1017.8
20260510122800 59 213 2.0 3.0 0.00 0.00 0.00 84 1017.7
20260510122256 61 171 0.0 2.0 0.00 0.00 0.00 79 1017.6
20260510121752 61 133 2.0 2.0 0.00 0.00 0.00 80 1017.7
20260510121250 63 42 1.0 2.0 0.00 0.00 0.00 78 1017.5
20260510120747 62 217 2.0 2.0 0.00 0.00 0.00 78 1017.4
20260510120244 59 213 1.0 1.0 0.00 0.00 0.00 81 1017.2
20260510115739 60 146 1.0 3.0 0.00 0.00 0.00 79 1017.2
20260510115238 59 101 2.0 3.0 0.00 0.00 0.00 80 1017.0
20260510114732 58 103 2.0 3.0 0.00 0.00 0.00 84 1016.8
20260510114230 56 99 0.0 2.0 0.00 0.00 0.00 85 1017.0
20260510113720 57 150 1.0 3.0 0.00 0.00 0.00 82 1016.8
20260510113217 60 107 3.0 4.0 0.00 0.00 0.00 78 1016.6
20260510112712 57 111 1.0 2.0 0.00 0.00 0.00 82 1016.6
20260510112210 59 148 0.0 3.0 0.00 0.00 0.00 78 1016.1
20260510111705 57 145 0.0 2.0 0.00 0.00 0.00 81 1016.6
20260510111203 57 41 2.0 3.0 0.00 0.00 0.00 79 1016.2
20260510110702 56 52 2.0 3.0 0.00 0.00 0.00 83 1016.0
20260510110201 54 42 1.0 4.0 0.00 0.00 0.00 91 1016.1
20260510105655 52 109 4.0 6.0 0.00 0.00 0.00 95 1015.8
20260510105150 50 115 4.0 5.0 0.00 0.00 0.00 96 1016.0
20260510104647 50 106 4.0 6.0 0.00 0.00 0.00 96 1016.1
20260510104143 51 114 5.0 6.0 0.00 0.00 0.00 96 1015.9
20260510103635 51 107 3.0 5.0 0.00 0.00 0.00 96 1015.8
20260510103131 51 103 5.0 6.0 0.00 0.00 0.00 96 1015.8
20260510102626 51 110 4.0 7.0 0.00 0.00 0.00 96 1015.7
20260510102122 51 106 5.0 6.0 0.00 0.00 0.00 96 1015.6
20260510101620 51 115 3.0 5.0 0.00 0.00 0.00 96 1015.6
20260510101118 51 119 4.0 5.0 0.00 0.00 0.00 95 1015.3
20260510100614 51 104 4.0 5.0 0.00 0.00 0.00 95 1015.5
20260510100112 51 115 4.0 5.0 0.00 0.00 0.00 94 1015.5
20260510095607 52 105 3.0 4.0 0.00 0.00 0.00 94 1015.2
20260510095102 52 107 2.0 3.0 0.00 0.00 0.00 94 1015.4
20260510094601 51 111 2.0 3.0 0.00 0.00 0.00 93 1015.2
20260510094057 51 108 2.0 3.0 0.00 0.00 0.00 93 1015.2
20260510093554 52 120 1.0 2.0 0.00 0.00 0.00 91 1015.4
20260510093050 53 118 2.0 3.0 0.00 0.00 0.00 89 1015.2
20260510092547 55 180 0.0 3.0 0.00 0.00 0.00 86 1015.2
20260510092046 56 100 4.0 5.0 0.00 0.00 0.00 86 1014.9
20260510091544 56 97 4.0 5.0 0.00 0.00 0.00 87 1015.2
20260510091039 55 98 3.0 5.0 0.00 0.00 0.00 93 1014.8
20260510090537 53 100 5.0 5.0 0.00 0.00 0.00 95 1014.8
20260510090032 52 98 5.0 5.0 0.00 0.00 0.00 96 1014.6
20260510085532 52 98 3.0 3.0 0.00 0.00 0.00 95 1014.9
20260510085029 52 113 3.0 5.0 0.00 0.00 0.00 95 1014.9
20260510084526 52 112 4.0 4.0 0.00 0.00 0.00 95 1014.8
20260510084022 52 132 3.0 4.0 0.00 0.00 0.00 95 1014.5
20260510083519 52 76 2.0 3.0 0.00 0.00 0.00 94 1014.7
20260510083015 53 73 2.0 3.0 0.00 0.00 0.00 94 1014.8
20260510082513 53 104 3.0 4.0 0.00 0.00 0.00 94 1014.6
20260510082013 53 106 3.0 4.0 0.00 0.00 0.00 94 1014.5
20260510081508 53 100 2.0 4.0 0.00 0.00 0.00 94 1014.4
20260510081005 53 111 4.0 4.0 0.00 0.00 0.00 93 1014.1
20260510080503 54 127 4.0 4.0 0.00 0.00 0.00 92 1014.5
20260510080000 55 101 4.0 5.0 0.00 0.00 0.00 91 1014.0
20260510075458 55 95 4.0 6.0 0.00 0.00 0.00 92 1014.2
20260510074954 55 113 5.0 5.0 0.00 0.00 0.00 91 1014.0
20260510074452 55 128 4.0 4.0 0.00 0.00 0.00 90 1014.2
20260510073947 57 127 3.0 6.0 0.00 0.00 0.00 87 1014.0
20260510073443 60 105 3.0 4.0 0.00 0.00 0.00 75 1014.1
20260510072940 61 78 2.0 4.0 0.00 0.00 0.00 73 1014.0
20260510072437 61 25 3.0 8.0 0.00 0.00 0.00 73 1014.1
20260510071932 61 86 5.0 5.0 0.00 0.00 0.00 74 1013.9
20260510071429 61 30 2.0 5.0 0.00 0.00 0.00 74 1014.0
20260510070927 60 63 4.0 7.0 0.00 0.00 0.00 75 1013.8
20260510070424 60 57 4.0 6.0 0.00 0.00 0.00 77 1014.1
20260510065920 60 15 4.0 7.0 0.00 0.00 0.00 77 1013.9
20260510065416 60 73 4.0 5.0 0.00 0.00 0.00 78 1013.9
20260510064913 60 29 4.0 8.0 0.00 0.00 0.00 78 1014.1
20260510064411 60 94 3.0 6.0 0.00 0.00 0.00 82 1014.1
20260510063907 60 54 4.0 5.0 0.00 0.00 0.00 84 1014.1
20260510063403 59 68 4.0 6.0 0.00 0.00 0.00 88 1014.2
20260510062901 59 82 3.0 6.0 0.00 0.00 0.00 94 1014.1
20260510062355 58 91 3.0 5.0 0.00 0.00 0.00 97 1014.2
20260510061851 58 45 4.0 6.0 0.00 0.00 0.00 98 1014.2
20260510061348 56 105 3.0 5.0 0.00 0.00 0.00 98 1014.4
20260510060844 55 120 5.0 5.0 0.00 0.00 0.00 98 1014.3
20260510060341 55 114 3.0 5.0 0.00 0.00 0.00 97 1014.4
20260510055838 55 140 3.0 5.0 0.00 0.00 0.00 97 1014.5
20260510055336 55 101 2.0 3.0 0.00 0.00 0.00 97 1014.5
20260510054831 55 127 3.0 4.0 0.00 0.00 0.00 97 1014.4
20260510054326 57 113 3.0 5.0 0.00 0.00 0.00 97 1014.2
20260510053822 57 113 3.0 3.0 0.00 0.00 0.00 97 1014.3
20260510053317 57 102 4.0 5.0 0.00 0.00 0.00 97 1014.7
20260510052814 57 78 3.0 4.0 0.00 0.00 0.00 97 1014.5
20260510052310 56 86 2.0 3.0 0.00 0.00 0.00 97 1014.6
20260510051806 56 127 2.0 3.0 0.00 0.00 0.00 97 1014.7
20260510051303 56 103 3.0 3.0 0.00 0.00 0.00 97 1014.4
20260510050800 56 101 2.0 3.0 0.00 0.00 0.00 96 1014.6
20260510050256 56 103 1.0 2.0 0.00 0.00 0.00 96 1014.6
20260510045754 57 118 3.0 4.0 0.00 0.00 0.00 96 1014.6
20260510045250 57 126 3.0 4.0 0.00 0.00 0.00 96 1014.6
20260510044747 58 107 3.0 5.0 0.00 0.00 0.00 96 1014.6
20260510044245 57 103 4.0 5.0 0.00 0.00 0.00 96 1014.4
20260510043740 57 116 4.0 7.0 0.00 0.00 0.00 96 1014.4
20260510043237 58 115 4.0 5.0 0.00 0.00 0.00 95 1014.5
20260510042734 59 102 4.0 5.0 0.00 0.00 0.00 96 1014.6
20260510042229 58 102 3.0 5.0 0.00 0.00 0.00 95 1014.5
20260510041727 58 108 5.0 5.0 0.00 0.00 0.00 95 1014.7
20260510041224 58 111 4.0 6.0 0.00 0.00 0.00 95 1014.5
20260510040721 59 113 3.0 5.0 0.00 0.00 0.00 95 1014.6
20260510040218 59 95 3.0 5.0 0.00 0.00 0.00 94 1014.5
20260510035713 59 104 4.0 5.0 0.00 0.00 0.00 94 1014.4
20260510035209 59 111 4.0 6.0 0.00 0.00 0.00 94 1014.5
20260510034705 59 103 4.0 5.0 0.00 0.00 0.00 94 1014.4
20260510034203 59 104 5.0 5.0 0.00 0.00 0.00 94 1014.5
20260510033659 59 100 3.0 5.0 0.00 0.00 0.00 93 1014.7
20260510033157 59 111 4.0 6.0 0.00 0.00 0.00 93 1014.6
20260510032653 60 101 3.0 5.0 0.00 0.00 0.00 93 1014.5
20260510032148 59 109 4.0 5.0 0.00 0.00 0.00 93 1014.7
20260510031643 60 121 4.0 5.0 0.00 0.00 0.00 92 1014.5
20260510031135 60 120 4.0 5.0 0.00 0.00 0.00 92 1014.4
20260510030635 60 115 3.0 4.0 0.00 0.00 0.00 91 1014.6
20260510030133 61 124 4.0 5.0 0.00 0.00 0.00 91 1014.2
20260510025630 61 112 3.0 5.0 0.00 0.00 0.00 90 1014.3
20260510025127 62 130 3.0 4.0 0.00 0.00 0.00 89 1014.4
20260510024623 62 114 4.0 5.0 0.00 0.00 0.00 88 1014.4
20260510024120 62 106 3.0 4.0 0.00 0.00 0.00 88 1014.2
20260510023616 62 116 2.0 4.0 0.00 0.00 0.00 88 1014.1
20260510023114 62 109 3.0 3.0 0.00 0.00 0.00 88 1013.8
20260510022613 63 89 3.0 4.0 0.00 0.00 0.00 87 1013.9
20260510022108 64 108 3.0 4.0 0.00 0.00 0.00 86 1013.9
20260510021604 63 102 4.0 4.0 0.00 0.00 0.00 86 1014.0
20260510021102 63 93 3.0 4.0 0.00 0.00 0.00 86 1013.8
20260510020556 63 107 4.0 5.0 0.00 0.00 0.00 86 1013.8
20260510020052 63 108 3.0 5.0 0.00 0.00 0.00 86 1013.7
20260510015548 63 88 3.0 5.0 0.00 0.00 0.00 86 1013.7
20260510015044 63 82 3.0 5.0 0.00 0.00 0.00 86 1013.4
20260510014540 63 120 3.0 5.0 0.00 0.00 0.00 86 1013.6
20260510014038 63 112 3.0 4.0 0.00 0.00 0.00 85 1013.4
20260510013532 64 106 2.0 4.0 0.00 0.00 0.00 84 1013.3
20260510013028 64 121 3.0 4.0 0.00 0.00 0.00 84 1012.9
20260510012522 64 112 3.0 4.0 0.00 0.00 0.00 83 1012.9
20260510012019 64 107 2.0 3.0 0.00 0.00 0.00 83 1013.1
20260510011518 64 92 2.0 4.0 0.00 0.00 0.00 83 1012.8
20260510011014 65 83 1.0 3.0 0.00 0.00 0.00 81 1012.8
20260510010512 65 94 2.0 3.0 0.00 0.00 0.00 81 1012.9
20260510010008 65 117 2.0 4.0 0.00 0.00 0.00 82 1012.7
20260510005504 65 102 3.0 4.0 0.00 0.00 0.00 82 1012.5
20260510005002 65 114 2.0 5.0 0.00 0.00 0.00 82 1012.1
20260510004459 65 108 2.0 3.0 0.00 0.00 0.00 81 1012.1
20260510003957 66 107 3.0 5.0 0.00 0.00 0.00 80 1012.4
20260510003453 66 120 3.0 3.0 0.00 0.00 0.00 81 1012.0
20260510002948 66 126 2.0 3.0 0.00 0.00 0.00 80 1011.9
20260510002445 66 116 3.0 4.0 0.00 0.00 0.00 79 1012.0
20260510001941 67 132 2.0 4.0 0.00 0.00 0.00 78 1011.8
20260510001439 67 107 2.0 3.0 0.00 0.00 0.00 76 1012.0
20260510000937 68 119 1.0 3.0 0.00 0.00 0.00 77 1012.1
20260510000433 68 138 1.0 3.0 0.00 0.00 0.00 75 1011.9
20260509235929 68 108 0.0 3.0 0.00 0.00 0.00 75 1011.8
20260509235426 68 116 3.0 4.0 0.00 0.00 0.00 76 1011.8
20260509234922 70 131 2.0 4.0 0.00 0.00 0.00 72 1012.0
20260509234419 71 206 2.0 4.0 0.00 0.00 0.00 66 1011.8
20260509233917 71 234 3.0 6.0 0.00 0.00 0.00 66 1011.9
20260509233414 71 262 3.0 5.0 0.00 0.00 0.00 64 1011.8
20260509232910 72 233 2.0 3.0 0.00 0.00 0.00 63 1011.8
20260509232408 72 253 3.0 3.0 0.00 0.00 0.00 63 1011.8
20260509231904 71 278 1.0 3.0 0.00 0.00 0.00 64 1011.7
20260509231401 71 245 2.0 3.0 0.00 0.00 0.00 65 1011.5
20260509230859 71 252 3.0 3.0 0.00 0.00 0.00 64 1011.5
20260509230355 72 76 0.0 2.0 0.00 0.00 0.00 66 1011.3
20260509225851 71 257 2.0 3.0 0.00 0.00 0.00 64 1011.4
20260509225348 72 275 0.0 2.0 0.00 0.00 0.00 65 1011.1
20260509224844 72 246 2.0 3.0 0.00 0.00 0.00 64 1011.2
20260509224340 72 262 1.0 4.0 0.00 0.00 0.00 63 1011.1
20260509223837 72 283 3.0 6.0 0.00 0.00 0.00 61 1011.1
20260509223334 72 131 1.0 2.0 0.00 0.00 0.00 65 1011.2
20260509222831 71 119 2.0 3.0 0.00 0.00 0.00 65 1011.3
20260509222326 72 114 2.0 3.0 0.00 0.00 0.00 64 1011.1
20260509221821 72 139 2.0 3.0 0.00 0.00 0.00 63 1010.9
20260509221320 72 110 2.0 3.0 0.00 0.00 0.00 62 1011.1
20260509220820 72 125 2.0 5.0 0.00 0.00 0.00 63 1011.2
20260509220316 73 342 1.0 2.0 0.00 0.00 0.00 62 1011.1
20260509215811 72 120 4.0 4.0 0.00 0.00 0.00 62 1011.1
20260509215309 73 128 1.0 3.0 0.00 0.00 0.00 62 1011.3
20260509214805 73 149 2.0 3.0 0.00 0.00 0.00 61 1011.3
20260509214303 73 132 2.0 3.0 0.00 0.00 0.00 60 1010.9
20260509213759 73 185 0.0 2.0 0.00 0.00 0.00 59 1010.7
20260509213255 73 123 3.0 4.0 0.00 0.00 0.00 58 1010.6
20260509212753 74 140 0.0 3.0 0.00 0.00 0.00 57 1010.6
20260509212250 73 210 2.0 3.0 0.00 0.00 0.00 56 1010.7
20260509211745 74 129 2.0 3.0 0.00 0.00 0.00 56 1010.6
20260509211242 73 222 4.0 6.0 0.00 0.00 0.00 52 1010.5
20260509210738 75 218 0.0 3.0 0.00 0.00 0.00 52 1010.6
20260509210236 75 279 3.0 5.0 0.00 0.00 0.00 52 1010.4
20260509205735 75 159 3.0 5.0 0.00 0.00 0.00 54 1010.5
20260509205230 74 226 1.0 4.0 0.00 0.00 0.00 54 1010.4
20260509204726 73 289 2.0 3.0 0.00 0.00 0.00 54 1010.5
20260509204223 75 277 6.0 7.0 0.00 0.00 0.00 52 1010.4
20260509203719 76 123 3.0 6.0 0.00 0.00 0.00 50 1010.6
20260509203217 75 171 3.0 5.0 0.00 0.00 0.00 51 1010.5
20260509202712 75 157 1.0 4.0 0.00 0.00 0.00 54 1010.4
20260509202208 74 265 8.0 9.0 0.00 0.00 0.00 50 1010.5
20260509201703 77 219 4.0 4.0 0.00 0.00 0.00 48 1010.7
20260509201200 77 251 6.0 6.0 0.00 0.00 0.00 49 1010.6
20260509200657 76 183 2.0 4.0 0.00 0.00 0.00 51 1010.7
20260509200151 75 232 4.0 6.0 0.00 0.00 0.00 52 1010.6
20260509195647 74 243 5.0 6.0 0.00 0.00 0.00 54 1010.7
20260509195143 73 202 4.0 5.0 0.00 0.00 0.00 53 1010.7
20260509194637 73 120 2.0 8.0 0.00 0.00 0.00 55 1011.0
20260509194134 75 260 3.0 3.0 0.00 0.00 0.00 54 1011.3
20260509193630 73 246 4.0 7.0 0.00 0.00 0.00 52 1011.2
20260509193125 74 239 4.0 11.0 0.00 0.00 0.00 52 1011.2
20260509192623 75 266 1.0 9.0 0.00 0.00 0.00 54 1011.3
20260509192118 75 318 3.0 6.0 0.00 0.00 0.00 52 1011.3
20260509191612 73 265 6.0 7.0 0.00 0.00 0.00 50 1011.2
20260509191109 74 255 4.0 4.0 0.00 0.00 0.00 55 1011.2
20260509190606 72 262 3.0 7.0 0.00 0.00 0.00 54 1011.1
20260509185601 74 223 2.0 5.0 0.00 0.00 0.00 53 1011.2
20260509185056 73 265 4.0 11.0 0.00 0.00 0.00 53 1010.9
20260509184555 73 272 6.0 11.0 0.00 0.00 0.00 54 1010.9
20260509184051 73 268 0.0 6.0 0.00 0.00 0.00 55 1011.0
20260509183547 72 330 3.0 11.0 0.00 0.00 0.00 54 1011.3
20260509183043 74 206 3.0 6.0 0.00 0.00 0.00 55 1011.2
20260509182539 73 140 2.0 5.0 0.00 0.00 0.00 54 1011.4
20260509182036 74 132 1.0 5.0 0.00 0.00 0.00 51 1011.6
20260509181535 72 260 3.0 11.0 0.00 0.00 0.00 55 1011.6
20260509181031 73 245 5.0 10.0 0.00 0.00 0.00 56 1011.8
20260509180527 73 258 3.0 10.0 0.00 0.00 0.00 57 1011.8
20260509180025 74 152 4.0 4.0 0.00 0.00 0.00 54 1012.0
20260509175520 72 232 9.0 10.0 0.00 0.00 0.00 56 1011.8
20260509175017 72 278 7.0 9.0 0.00 0.00 0.00 57 1011.9
20260509174513 73 251 6.0 7.0 0.00 0.00 0.00 59 1012.1